CZ-6A DEB, 56282

Orbit data source: Space-Track

CZ-6A DEB, 56282 is space debris in SSO originally from a launch on Fri, 11 Nov 2022 UTC launched from the Taiyaun Space Center, China (TSC). Debris objects in space refer to the collection of defunct objects orbiting the Earth. Examples of debris include non-operational satellites, rocket bodies, and fragments generated from explosions, collisions, or faulty payload assembly.

Loading next visibility...
Identifier
56282, 2022-151ADA
Orbit
SSO
Country
Flag of CNCN / PRC
Related business
Manufacturer
SAST
Mission
Spacecraft
Bus & Motor
Unknown
Mass
Unknown
Launch date (UTC)
2022-11-11 (3 years ago)
Launch vehicle
Unknown
Launch site
Taiyaun Space Center, China (TSC)
Object type
Payload
Rocket body
Debris
Shape & HBR
Unknown shape, 0.1 m
Radar Cross Section
Small (<0.1 m²)

Expand to show TLE details & history
Last TLE update: 1 day ago

TLE from 1 day ago
0 CZ-6A DEB
1 56282U 22151ADA 26129.31193891  .00002985  00000-0  13636-2 0  9994
2 56282  98.8525 141.5542 0072183 107.0393 253.8708 14.20889136162057
Epoch: 2026-05-09T07:29Z
TLE epoch observation values (Epoch: 2026-05-09T07:29:11.521Z)
Latitude
-0.00004°
Longitude
162.12502°
Altitude
840.046 km
Speed
7.425 km/s
True Right ascension
09h 26m 13s
True Declination
0° 00' 00"
Sunlit
Object was in daylight at epoch
Visualization orbit readout
Latitude
Unknown
Longitude
Unknown
Altitude
Unknown
Speed
Unknown
Apparent Right ascension
Unknown
Apparent Declination
Unknown
Sunlit
N/A
Visualization observer readout
Local Sidereal Time
22:08:32
Azimuth
Unknown
Elevation
Unknown
Doppler factor
Unknown
Orbital elements
Apogee altitude
871.466 km
Perigee altitude
767.557 km
Semi-major axis
7,197.648 km
Eccentricity
0.00722
Inclination
98.8525°
RAAN
141.5542°
Arg. of periapsis
107.0393°
True anomaly
253.07821°
Mean anomaly
253.8708°
Eccentric anomaly
253.47431°
Mean motion
3.55433 °/min
Orbital period
101.29 mins
BSTAR
0.0013636
Loading maneuver chart data...
Computing Atmospheric mass density...
Loading historical data...
Loading historical data...
Loading historical data...
Loading historical data...
Loading historical data...
Loading historical data...
Loading historical data...

Documentation

Showing up to 5 results
|